Location: Elbart
(49.6135°N, 11.9134°E)
Time: 18:28:35
(UTC+00:00)

Cosmos 2061 Rocket - Pass Details

Date: 09 April 2020
Orbit: 967 x 1012 km, 82.9° (Epoch: 01 June)

Event Time Altitude Azimuth Distance (km) Brightness Sun altitude
Rises 23:23:09 0° 347° (NNW) 3,687 8.0 -32.3°
Reaches altitude 10° 23:25:42 10° 344° (NNW) 2,741 7.1 -32.3°
Enters shadow 23:30:55 52° 298° (WNW) 1,216 4.5 -32.2°
